Location: Dresden
(51.0300°N, 13.7800°E)
Time: 22:20:01
(UTC+01:00)

Tiros N - Visible Passes

Search period start: 13 January 2026 00:00
Search period end: 23 January 2026 00:00
Orbit: 821 x 835 km, 98.5° (Epoch: 13 January)

Date Brightness Start Highest point End Pass type
(mag) Time Alt. Az. Time Alt. Az. Time Alt. Az.
13 Jan 8.2 06:07:52 10° NE 06:10:30 14° E 06:13:07 10° ESE visible
13 Jan 5.7 17:35:07 10° SE 17:39:58 36° ENE 17:44:52 10° N visible
13 Jan 6.3 19:15:05 10° SSW 19:20:10 43° W 19:25:19 10° NNW visible
14 Jan 6.0 17:17:09 10° ESE 17:21:35 27° ENE 17:26:03 10° N visible
14 Jan 5.7 18:56:13 10° S 19:01:31 59° WSW 19:06:53 10° NNW visible
15 Jan 6.7 07:09:16 10° NNE 07:14:25 41° E 07:19:31 10° SSE visible
15 Jan 6.3 16:59:21 10° ESE 17:03:14 21° NE 17:07:10 10° N visible
15 Jan 5.2 18:37:32 10° SSE 18:42:55 81° WSW 18:48:22 10° NNW visible
15 Jan 8.0 20:21:17 10° WSW 20:24:04 14° W 20:26:51 10° NW visible
16 Jan 7.3 06:50:57 10° NNE 06:55:42 30° E 07:00:25 10° SSE visible
16 Jan 5.0 18:19:00 10° SSE 18:24:22 75° ENE 18:29:47 10° NNW visible
16 Jan 7.6 20:01:22 10° SW 20:05:14 20° W 20:09:07 10° NW visible
17 Jan 7.8 06:32:47 10° NE 06:36:56 22° E 06:41:04 10° SE visible
17 Jan 5.2 18:00:38 10° SE 18:05:51 55° ENE 18:11:09 10° N visible
17 Jan 7.1 19:41:55 10° SSW 19:46:26 27° W 19:51:01 10° NW visible
18 Jan 8.1 06:14:53 10° NE 06:18:07 16° E 06:21:20 10° ESE visible
18 Jan 5.5 17:42:24 10° SE 17:47:24 41° ENE 17:52:27 10° N visible
18 Jan 6.6 19:22:45 10° SSW 19:27:43 37° W 19:32:44 10° NNW visible
19 Jan 8.5 05:57:50 10° ENE 05:59:15 11° E 06:00:40 10° E visible
19 Jan 5.9 17:24:20 10° ESE 17:28:59 31° ENE 17:33:40 10° N visible
19 Jan 6.0 19:03:48 10° S 19:09:02 51° W 19:14:20 10° NNW visible
20 Jan 6.4 07:16:41 10° NNE 07:21:57 47° E 07:27:10 10° S visible
20 Jan 6.2 17:06:28 10° ESE 17:10:38 23° ENE 17:14:50 10° N visible
20 Jan 5.4 18:45:03 10° S 18:50:25 71° WSW 18:55:51 10° NNW visible
20 Jan 8.2 20:29:39 10° WSW 20:31:41 12° W 20:33:44 10° WNW visible
21 Jan 7.1 06:58:19 10° NNE 07:03:16 34° E 07:08:11 10° SSE visible
21 Jan 5.1 18:26:26 10° SSE 18:31:50 85° ENE 18:37:18 10° NNW visible
21 Jan 7.8 20:09:21 10° SW 20:12:49 17° W 20:16:19 10° NW visible
22 Jan 7.7 06:40:04 10° NE 06:44:31 25° E 06:48:57 10° SE visible
22 Jan 5.1 18:08:00 10° SSE 18:13:18 63° ENE 18:18:40 10° N visible
22 Jan 7.4 19:49:44 10° SW 19:54:01 24° W 19:58:20 10° NW visible
